Location: Banios
(43.0451°N, 0.2335°E)
Time: 04:31:24
(UTC+00:00)

N. Korean satellite - Pass Details

Date: 04 December 2021
Orbit: 447 x 491 km, 97.3° (Epoch: 25 January)

Event Time Altitude Azimuth Distance (km) Brightness Sun altitude
Rises 16:57:46 0° 189° (S) 2,531 10.7 -6.2°
Reaches altitude 10° 17:00:00 10° 201° (SSW) 1,649 10.0 -6.6°
Maximum altitude 17:03:09 30° 263° (W) 887 8.8 -7.1°
Drops below altitude 10° 17:06:16 10° 326° (NW) 1,637 9.4 -7.6°
Sets 17:08:30 0° 338° (NNW) 2,510 10.2 -8.0°
